EW5980 Weather Reports


Display with metric or nautical units.
time (UTC)temp
F
wind
direction
speed
MPH
gust
MPH
rain 1hr
in
rain 24hr
in
rain mn
in
humidity
%
barometer
mb
20260902124546 78 0.0 0.0 0.00 0.00 0.00 53 1018.8
20260902123115 77 0.0 0.0 0.00 0.00 0.00 52 1018.8
20260902121600 77 0.0 0.0 0.00 0.00 0.00 53 1018.5
20260902120104 77 0.0 0.0 0.00 0.00 0.00 55 1018.2
20260902114547 77 0.0 0.0 0.00 0.00 0.00 56 1018.3
20260902113054 77 0.0 0.0 0.00 0.00 0.00 56 1018.1
20260902111601 77 0.0 0.0 0.00 0.00 0.00 58 1017.9
20260902110048 77 0.0 0.0 0.00 0.00 0.00 60 1018.0
20260902104554 77 0.0 0.0 0.00 0.00 0.00 61 1017.7
20260902103052 77 0.0 0.0 0.00 0.00 0.00 61 1017.7
20260902101558 77 0.0 0.0 0.00 0.00 0.00 63 1017.6
20260902100101 78 0.0 0.0 0.00 0.00 0.00 65 1017.4
20260902094557 78 0.0 0.0 0.00 0.00 0.00 66 1017.3
20260902093053 78 0.0 0.0 0.00 0.00 0.00 67 1017.1
20260902091555 78 0.0 0.0 0.00 0.00 0.00 68 1017.0
20260902090046 78 0.0 0.0 0.00 0.00 0.00 69 1017.0
20260902084552 78 0.0 0.0 0.00 0.00 0.00 70 1017.0
20260902083046 78 0.0 0.0 0.00 0.00 0.00 72 1017.0
20260902081603 78 0.0 0.0 0.00 0.00 0.00 73 1016.9
20260902080057 79 0.0 0.0 0.00 0.00 0.00 74 1016.9
20260902074602 79 0.0 0.0 0.00 0.00 0.00 74 1016.9
20260902073050 79 0.0 0.0 0.00 0.00 0.00 76 1017.1
20260902071545 79 0.0 0.0 0.00 0.00 0.00 77 1017.0
20260902064557 79 0.0 0.0 0.00 0.00 0.00 78 1016.8
20260902063057 80 0.0 0.0 0.00 0.00 0.00 78 1017.0
20260902061557 80 0.0 0.0 0.00 0.00 0.00 78 1017.1
20260902060046 80 0.0 0.0 0.00 0.00 0.00 78 1017.1
20260902054557 80 0.0 0.0 0.00 0.00 0.00 78 1017.2
20260902053052 81 0.0 0.0 0.00 0.00 0.00 78 1017.2
20260902051601 81 0.0 0.0 0.00 0.00 0.00 78 1017.2
20260902050104 82 0.0 0.0 0.00 0.00 0.00 78 1017.0
20260902044557 82 0.0 0.0 0.00 0.00 0.00 76 1017.1
20260902043056 82 0.0 0.0 0.00 0.00 0.00 76 1017.3
20260902041558 83 0.0 0.0 0.00 0.00 0.00 75 1017.4
20260902040100 83 0.0 0.0 0.00 0.00 0.00 74 1017.4
20260902034557 83 0.0 0.0 0.00 0.00 0.00 74 1017.3
20260902033059 83 0.0 0.0 0.00 0.00 0.00 74 1017.2
20260902031611 84 0.0 0.0 0.00 0.00 0.00 72 1017.1
20260902030056 84 0.0 0.0 0.00 0.00 0.00 71 1017.0
20260902024607 85 0.0 0.0 0.00 0.00 0.00 70 1016.8
20260902023105 85 0.0 0.0 0.00 0.00 0.00 69 1016.8
20260902021610 86 0.0 0.0 0.00 0.00 0.00 68 1016.7
20260902020108 86 0.0 0.0 0.00 0.00 0.00 67 1016.4
20260902014549 86 0.0 0.0 0.00 0.00 0.00 65 1016.2
20260902013100 87 0.0 0.0 0.00 0.00 0.00 65 1016.0
20260902011557 88 0.0 0.0 0.00 0.00 0.00 63 1015.8
20260902010051 89 0.0 0.0 0.00 0.00 0.00 62 1015.6
20260902004554 90 0.0 0.0 0.00 0.00 0.00 60 1015.4
20260902003055 90 0.0 0.0 0.00 0.00 0.00 59 1015.3
20260902001557 91 0.0 0.0 0.00 0.00 0.00 57 1015.2
20260902000057 92 0.0 0.0 0.00 0.00 0.00 55 1015.3
20260901234555 92 0.0 0.0 0.00 0.00 0.00 54 1015.2
20260901233050 92 0.0 0.0 0.00 0.00 0.00 53 1015.3
20260901231601 93 0.0 0.0 0.00 0.00 0.00 53 1015.2
20260901230105 93 0.0 0.0 0.00 0.00 0.00 53 1015.4
20260901224552 93 0.0 0.0 0.00 0.00 0.00 52 1015.5
20260901223056 93 0.0 0.0 0.00 0.00 0.00 53 1015.4
20260901221558 93 0.0 0.0 0.00 0.00 0.00 52 1015.6
20260901220125 94 0.0 0.0 0.00 0.00 0.00 52 1015.5
20260901214552 94 0.0 0.0 0.00 0.00 0.00 51 1015.8
20260901213050 94 0.0 0.0 0.00 0.00 0.00 50 1015.8
20260901211556 94 0.0 0.0 0.00 0.00 0.00 49 1016.1
20260901210055 95 0.0 0.0 0.00 0.00 0.00 49 1016.3
20260901204549 95 0.0 0.0 0.00 0.00 0.00 49 1016.6
20260901203100 95 0.0 0.0 0.00 0.00 0.00 50 1016.7
20260901201559 95 0.0 0.0 0.00 0.00 0.00 50 1016.8
20260901200052 94 0.0 0.0 0.00 0.00 0.00 50 1017.1
20260901194555 95 0.0 0.0 0.00 0.00 0.00 48 1017.2
20260901193049 95 0.0 0.0 0.00 0.00 0.00 47 1017.2
20260901191611 96 0.0 0.0 0.00 0.00 0.00 48 1017.3
20260901190054 96 0.0 0.0 0.00 0.00 0.00 49 1017.5
20260901184610 96 0.0 0.0 0.00 0.00 0.00 49 1017.5
20260901183058 96 0.0 0.0 0.00 0.00 0.00 49 1017.7
20260901181600 96 0.0 0.0 0.00 0.00 0.00 48 1017.8
20260901180057 95 0.0 0.0 0.00 0.00 0.00 51 1018.0
20260901174555 94 0.0 0.0 0.00 0.00 0.00 53 1017.9
20260901173052 94 0.0 0.0 0.00 0.00 0.00 54 1018.1
20260901171547 94 0.0 0.0 0.00 0.00 0.00 53 1018.4
20260901170056 94 0.0 0.0 0.00 0.00 0.00 54 1018.6
20260901164554 95 0.0 0.0 0.00 0.00 0.00 53 1018.7
20260901163048 95 0.0 0.0 0.00 0.00 0.00 54 1018.9
20260901161612 94 0.0 0.0 0.00 0.00 0.00 56 1019.0
20260901160114 93 0.0 0.0 0.00 0.00 0.00 58 1019.0
20260901154556 93 0.0 0.0 0.00 0.00 0.00 61 1019.1
20260901153110 92 0.0 0.0 0.00 0.00 0.00 63 1019.0
20260901151605 91 0.0 0.0 0.00 0.00 0.00 63 1019.2
20260901150058 90 0.0 0.0 0.00 0.00 0.00 65 1019.3
20260901144555 90 0.0 0.0 0.00 0.00 0.00 65 1019.2
20260901143126 89 0.0 0.0 0.00 0.00 0.00 69 1019.2
20260901141557 88 0.0 0.0 0.00 0.00 0.00 72 1019.2
20260901140100 86 0.0 0.0 0.00 0.00 0.00 76 1019.4
20260901134558 83 0.0 0.0 0.00 0.00 0.00 78 1019.2
20260901133056 83 0.0 0.0 0.00 0.00 0.00 78 1019.3
20260901131554 82 0.0 0.0 0.00 0.00 0.00 78 1019.1
20260901130058 81 0.0 0.0 0.00 0.00 0.00 77 1019.0